This demonstration page uses our WeatherBlox Daily Observations layout. Learn more.

Left ArrowRight Arrow

Hourly Observations for September 5, 2015

Temp ( °F °C ) Dew Point ( °F °C ) Humidity (%) Winds ( mph kmh ) Pressure ( in mb ) Visibility ( mi km ) Precip ( " mm )
12:59 am 00:59 Mostly Cloudy 79 26.1 72 22.2 79 79 NE 10 17 30.09 1019 7 11 0.00 0.00
1:59 am 01:59 Mostly Cloudy 79 26.1 72 22.2 79 79 NE 10 17 30.07 1018 7 11 0.00 0.00
2:59 am 02:59 Mostly Cloudy 78 25.6 70 21.1 76 76 ENE 9 15 30.08 1019 7 11 0.00 0.00
3:59 am 03:59 Mostly Cloudy 79 26.1 70 21.1 74 74 ENE 10 17 30.08 1019 8 13 0.00 0.00
4:59 am 04:59 Mostly Cloudy 79 26.1 70 21.1 74 74 NE 14 22 30.09 1019 7 11 0.00 0.00
5:59 am 05:59 Mostly Cloudy 78 25.6 71 21.7 79 79 NE 9 15 30.10 1019 7 11 0.00 0.00
6:41 am 06:41 Cloudy with Mist and Fog 77 25 72 22.2 85 85 ENE 13 20 30.12 1020 6 10 0.00 0.03
6:49 am 06:49 Cloudy with Mist and Fog 77 25 72 22.2 85 85 ENE 16 26 30.12 1020 6 10 0.00 0.03
6:59 am 06:59 Cloudy with Rain 76 24.4 73 22.8 91 91 E 12 19 30.11 1020 3 5 0.01 0.25
7:02 am 07:02 Cloudy with Light Rain 76 24.4 72 22.2 88 88 E 15 24 30.12 1020 3 4 0.01 0.25
7:03 am 07:03 Cloudy with Light Rain 76 24.4 72 22.2 88 88 E 14 22 30.12 1020 3 5 0.01 0.25
7:59 am 07:59 Mostly Cloudy 79 26.1 72 22.2 79 79 ENE 16 26 30.12 1020 7 11 0.02 0.51
8:59 am 08:59 Mostly Cloudy with Mist and Fog 79 26.1 71 21.7 77 77 ENE 18 30 30.14 1021 6 10 0.00 0.03
9:59 am 09:59 Mostly Cloudy 81 27.2 69 20.6 67 67 ENE 17 28 30.16 1021 8 13 0.00 0.00
10:59 am 10:59 Mostly Cloudy 82 27.8 68 20 63 63 ENE 18 30 30.16 1022 8 13 0.00 0.00
11:59 am 11:59 Mostly Cloudy 84 28.9 69 20.6 61 61 ENE 15 24 30.17 1022 8 13 0.00 0.00
12:54 pm 12:54 Cloudy 81 27 70 21 70 70 ENE 21 33 30.18 1022 7 11 0.00 0.00
12:59 pm 12:59 Cloudy 81 27.2 69 20.6 67 67 ENE 17 28 30.17 1022 8 13 0.00 0.00
1:29 pm 13:29 Cloudy 82 27.8 69 20.6 65 65 NE 13 20 30.18 1022 8 13 0.00 0.00
1:59 pm 13:59 Cloudy 82 27.8 68 20 63 63 NE 18 30 30.16 1022 8 13 0.00 0.00
2:59 pm 14:59 Cloudy 80 26.7 68 20 67 67 ENE 15 24 30.16 1021 8 13 0.00 0.00
3:59 pm 15:59 Cloudy 80 26.7 68 20 67 67 ENE 17 28 30.16 1021 8 13 0.00 0.00
4:59 pm 16:59 Mostly Cloudy 81 27.2 68 20 65 65 NE 17 28 30.16 1021 8 13 0.00 0.00
5:59 pm 17:59 Mostly Cloudy 80 26.7 67 19.4 64 64 ENE 16 26 30.15 1021 9 14 0.00 0.00
6:59 pm 18:59 Mostly Cloudy 78 25.6 65 18.3 64 64 ENE 16 26 30.15 1021 10 16 0.00 0.00
7:59 pm 19:59 Mostly Cloudy 77 25 66 18.9 69 69 NE 15 24 30.15 1021 10 16 0.00 0.00
8:59 pm 20:59 Mostly Cloudy 77 25 67 19.4 71 71 NE 13 20 30.16 1021 10 16 0.00 0.00
9:59 pm 21:59 Mostly Cloudy 76 24.4 68 20 77 77 ENE 13 20 30.16 1022 10 16 0.00 0.00
10:59 pm 22:59 Mostly Cloudy 76 24.4 68 20 77 77 ENE 12 19 30.16 1021 10 16 0.00 0.00
11:59 pm 23:59 Mostly Cloudy 76 24.4 68 20 77 77 ENE 14 22 30.16 1021 10 16 0.00 0.00

Powered by AerisWeather